Content
SEND FEEDBACK

Daily
Averages
Monthly
Summary
Pakistan

ABBOTTABAD LINES, PAKISTAN


Home > Asia > Pakistan
Elevation: 72 feet     Latitude: 24 48N     Longitude: 067 12E

WEATHER
 
SELECT A DAY
Number of Records: 274,423;   Date Range: 12/24/96 - 8/12/14
 
SHARE

PRINT THIS DATA

[ ← Previous Day ]
WEATHER ALMANAC - JANUARY 31, 2013
[ Next Day → ]
[ °C ]   °F
Weather ElementAverageHighLow
Temperature73.1 °F86 °F (3:00 pm)57.2 °F (7:30 am)
Dewpoint43.1 °F53 °F (5:00 am)37.4 °F (3:00 pm)
Humidity36.6 %60 % (5:00 am)14 % (5:00 pm)
Barometer29.99 in30.04 in (8:30 am)29.92 in (3:30 pm)
Wind Speed6.8 mph15 mph (2:00 pm)
Weather ElementAverage
Visibility3.5 mi
Wind DirectionENE (76.2 °)

Weather ElementTotal
Precipitation---
Cooling Degree Days6.6 (Base 65)
Growing Degree Days21.6 (Base 50)
Averaged from 47 records on January 31, 2013
WEATHER CONDITIONS BREAKOUT
WIND DIRECTION BREAKOUT
WEATHER BY HOUR - JANUARY 31, 2013
[ °C ]   °F
Local TimeTemperatureDewpointHumidityBarometerVisibilityWind DirectionWind SpeedGust SpeedPrecipitationEventsConditions
12:30 AM64.4 °F48.2 °F56 %29.98 in3.7 miNorth (360°)4.6 mphScattered Clouds
1:00 AM64.4 °F50.0 °F59 %29.98 in3.7 miCalmScattered Clouds
1:30 AM64.4 °F50.0 °F59 %29.98 in3.7 miCalmScattered Clouds
2:00 AM64.4 °F50.0 °F59 %29.98 in3.7 miNE (40°)4.6 mphScattered Clouds
2:30 AM64.4 °F50.0 °F59 %29.98 in3.7 miNE (50°)4.6 mphScattered Clouds
3:00 AM64.4 °F50.0 °F59 %29.98 in3.7 miNorth (10°)3.5 mphScattered Clouds
3:30 AM64.4 °F50.0 °F59 %29.98 in3.7 miNNW (330°)3.5 mphScattered Clouds
4:00 AM64.4 °F50.0 °F59 %29.98 in3.7 miNorth (350°)3.5 mphScattered Clouds
4:30 AM64.4 °F50.0 °F59 %29.98 in3.7 miNNE (30°)3.5 mphScattered Clouds
5:00 AM63.0 °F53.0 °F60 %29.96 in2.0 miNE (50°)4.6 mphPartly Cloudy
5:00 AM64.4 °F50.0 °F59 %29.95 in3.7 miCalmScattered Clouds
7:00 AM59.0 °F42.8 °F55 %29.98 in3.7 miVariable3.5 mphScattered Clouds
7:30 AM57.2 °F42.8 °F59 %30.01 in3.7 miVariable3.5 mphScattered Clouds
8:00 AM59.0 °F42.8 °F55 %30.01 in3.1 miCalmSmoke
8:30 AM60.8 °F42.8 °F52 %30.04 in3.1 miCalmSmoke
9:00 AM64.4 °F44.6 °F49 %30.04 in3.1 miCalmSmoke
9:30 AM68.0 °F44.6 °F43 %30.04 inNorthHaze
10:00 AM71.6 °F44.6 °F38 %30.04 in3.1 miNorth (360°)10.4 mphHaze
10:30 AM77.0 °F44.6 °F32 %30.04 in3.1 miNE (40°)10.4 mphHaze
11:00 AM78.0 °F48.0 °F25 %30.04 in2.0 miNE (50°)6.9 mphClear
11:00 AM78.8 °F44.6 °F30 %30.04 in3.1 miNE (50°)9.2 mphHaze
11:30 AM78.8 °F44.6 °F30 %30.04 in3.1 miNNE (20°)13.8 mphHaze
12:00 PM82.4 °F42.8 °F25 %30.04 in3.1 miNE (50°)11.5 mphHaze
12:30 PM82.4 °F41.0 °F23 %30.01 in3.1 miNE (50°)13.8 mphHaze
1:00 PM84.2 °F39.2 °F20 %29.98 in3.7 miNE (50°)11.5 mphMostly Cloudy
1:30 PM84.2 °F39.2 °F20 %29.98 in3.7 miENE (60°)13.8 mphMostly Cloudy
2:00 PM84.2 °F39.2 °F20 %29.98 in3.7 miNE (40°)15.0 mphMostly Cloudy
2:30 PM84.2 °F39.2 °F20 %29.95 in3.7 miNE (50°)13.8 mphMostly Cloudy
3:00 PM86.0 °F37.4 °F18 %29.95 in3.7 miNE (50°)12.7 mphMostly Cloudy
3:30 PM84.2 °F39.2 °F20 %29.92 in3.7 miENE (70°)15.0 mphMostly Cloudy
4:00 PM84.2 °F39.2 °F20 %29.92 in3.7 miNE (50°)13.8 mphMostly Cloudy
4:30 PM84.2 °F37.4 °F19 %29.92 in3.7 miENE (60°)15.0 mphMostly Cloudy
5:00 PM85.0 °F43.0 °F14 %29.92 in2.0 miEast (90°)6.9 mphClear
5:00 PM84.2 °F37.4 °F19 %29.92 in3.7 miNNE (30°)15.0 mphMostly Cloudy
5:55 PM82.4 °F37.4 °F20 %29.95 in3.7 miENE (60°)6.9 mphScattered Clouds
6:25 PM80.6 °F37.4 °F21 %29.95 in3.7 miENE (70°)5.8 mphScattered Clouds
6:55 PM78.8 °F39.2 °F24 %29.95 in3.7 miENE (60°)5.8 mphScattered Clouds
7:25 PM78.8 °F39.2 °F24 %29.95 in3.7 miNE (50°)6.9 mphScattered Clouds
7:55 PM77.0 °F39.2 °F26 %29.98 in3.7 miENE (60°)6.9 mphScattered Clouds
8:25 PM75.2 °F39.2 °F27 %29.98 in3.7 miENE (60°)4.6 mphScattered Clouds
8:55 PM75.2 °F39.2 °F27 %30.01 in3.7 miNE (50°)5.8 mphScattered Clouds
9:30 PM73.4 °F39.2 °F29 %30.01 in3.7 miNNE (30°)6.9 mphScattered Clouds
10:00 PM71.6 °F39.2 °F31 %30.01 in4.3 miNorth (360°)4.6 mphPartly Cloudy
10:30 PM68.0 °F39.2 °F35 %30.01 in4.3 miNNW (340°)4.6 mphPartly Cloudy
11:00 PM72.0 °F44.0 °F25 %30.01 in2.0 miNE (50°)4.6 mphClear
11:00 PM66.2 °F39.2 °F37 %30.01 in4.3 miCalmPartly Cloudy
11:30 PM66.2 °F41.0 °F40 %30.01 in4.3 miCalmPartly Cloudy
Hourly data recorded from OPKC, located miles away from Abbottabad Lines, Pakistan







STORIES FROM OUR PARTNERS